Time,TemperatureF,DewpointF,PressureIn,WindDirection,WindDirectionDegrees,WindSpeedMPH,WindSpeedGustMPH,Humidity,HourlyPrecipIn,Conditions,Clouds,dailyrainin,SoftwareType,DateUTC
2013-06-11 00:00:00,65.3,62.6,29.78,SSW,205,0.0,7.0,91,0.00,,---,0.00,VWS V14.01,2013-06-11 04:00:00,
2013-06-11 00:01:00,65.3,62.6,29.78,SSW,205,0.0,0.0,91,0.00,,---,0.00,VWS V14.01,2013-06-11 04:01:00,
2013-06-11 00:07:00,65.1,62.4,29.78,NNW,344,0.0,3.0,91,0.00,,---,0.00,VWS V14.01,2013-06-11 04:07:00,
2013-06-11 00:12:00,65.0,62.6,29.78,NW,321,0.0,3.0,92,0.00,,---,0.00,VWS V14.01,2013-06-11 04:12:00,
2013-06-11 00:17:00,64.9,62.5,29.79,West,278,0.0,3.0,92,0.00,,---,0.00,VWS V14.01,2013-06-11 04:17:00,
2013-06-11 00:22:00,64.7,62.3,29.79,West,260,1.0,3.0,92,0.00,,---,0.00,VWS V14.01,2013-06-11 04:22:00,
2013-06-11 00:27:00,64.6,62.2,29.79,NE,37,0.0,3.0,92,0.00,,---,0.00,VWS V14.01,2013-06-11 04:27:00,
2013-06-11 00:30:00,64.5,62.1,29.79,West,262,1.0,3.0,92,0.00,,---,0.00,VWS V14.01,2013-06-11 04:30:00,
2013-06-11 00:32:00,64.5,62.1,29.79,WNW,288,1.0,4.0,92,0.00,,---,0.00,VWS V14.01,2013-06-11 04:32:00,
2013-06-11 00:37:00,64.5,62.4,29.79,NW,311,0.0,4.0,93,0.00,,---,0.00,VWS V14.01,2013-06-11 04:37:00,
2013-06-11 00:42:00,64.3,61.9,29.80,NNW,333,3.0,5.0,92,0.00,,---,0.00,VWS V14.01,2013-06-11 04:42:00,
2013-06-11 00:47:00,64.3,62.2,29.80,NW,326,0.0,5.0,93,0.00,,---,0.00,VWS V14.01,2013-06-11 04:47:00,
2013-06-11 00:52:00,64.1,62.0,29.80,NNW,342,0.0,5.0,93,0.00,,---,0.00,VWS V14.01,2013-06-11 04:52:00,
2013-06-11 00:57:00,64.1,62.3,29.80,ESE,104,0.0,5.0,94,0.00,,---,0.00,VWS V14.01,2013-06-11 04:57:00,
2013-06-11 01:00:00,64.2,62.4,29.80,NW,309,1.0,5.0,94,0.00,,---,0.00,VWS V14.01,2013-06-11 05:00:00,
2013-06-11 01:02:00,64.2,62.4,29.80,NW,304,1.0,5.0,94,0.00,,---,0.00,VWS V14.01,2013-06-11 05:02:00,
2013-06-11 01:07:00,64.3,62.5,29.80,NNW,336,4.0,5.0,94,0.00,,---,0.00,VWS V14.01,2013-06-11 05:07:00,
2013-06-11 01:12:00,64.4,62.6,29.80,WNW,283,0.0,5.0,94,0.00,,---,0.00,VWS V14.01,2013-06-11 05:12:00,
2013-06-11 01:17:00,64.5,62.7,29.80,NW,319,0.0,5.0,94,0.00,,---,0.00,VWS V14.01,2013-06-11 05:17:00,
2013-06-11 01:22:00,64.4,62.3,29.80,North,359,0.0,5.0,93,0.00,,---,0.00,VWS V14.01,2013-06-11 05:22:00,
2013-06-11 01:27:00,64.2,62.4,29.79,WSW,251,0.0,5.0,94,0.00,,---,0.00,VWS V14.01,2013-06-11 05:27:00,
2013-06-11 01:30:00,64.2,62.4,29.79,SW,218,0.0,5.0,94,0.00,,---,0.00,VWS V14.01,2013-06-11 05:30:00,
2013-06-11 01:32:00,64.1,62.3,29.79,NNW,340,2.0,4.0,94,0.00,,---,0.00,VWS V14.01,2013-06-11 05:32:00,
2013-06-11 01:37:00,64.0,62.2,29.80,West,264,0.0,5.0,94,0.00,,---,0.00,VWS V14.01,2013-06-11 05:37:00,
2013-06-11 01:42:00,64.0,62.2,29.80,NW,324,1.0,5.0,94,0.00,,---,0.00,VWS V14.01,2013-06-11 05:42:00,
2013-06-11 01:47:00,63.9,61.8,29.80,NW,319,1.0,5.0,93,0.00,,---,0.00,VWS V14.01,2013-06-11 05:47:00,
2013-06-11 01:52:00,63.8,61.7,29.80,West,269,1.0,5.0,93,0.00,,---,0.00,VWS V14.01,2013-06-11 05:52:00,
2013-06-11 01:57:00,63.7,61.6,29.80,WNW,294,2.0,5.0,93,0.00,,---,0.00,VWS V14.01,2013-06-11 05:57:00,
2013-06-11 02:00:00,63.6,61.5,29.80,SW,235,1.0,5.0,93,0.00,,---,0.00,VWS V14.01,2013-06-11 06:00:00,
2013-06-11 02:02:00,63.6,61.5,29.80,WNW,296,1.0,4.0,93,0.00,,---,0.00,VWS V14.01,2013-06-11 06:02:00,
2013-06-11 02:07:00,63.5,61.4,29.80,SW,219,1.0,6.0,93,0.00,,---,0.00,VWS V14.01,2013-06-11 06:07:00,
2013-06-11 02:12:00,63.3,61.2,29.80,North,349,1.0,6.0,93,0.00,,---,0.00,VWS V14.01,2013-06-11 06:12:00,
2013-06-11 02:17:00,63.2,61.5,29.81,North,352,0.0,6.0,94,0.00,,---,0.00,VWS V14.01,2013-06-11 06:17:00,
2013-06-11 02:22:00,63.1,61.3,29.81,WSW,239,1.0,6.0,94,0.00,,---,0.00,VWS V14.01,2013-06-11 06:22:00,
2013-06-11 02:27:00,63.1,61.7,29.80,West,274,0.0,6.0,95,0.00,,---,0.00,VWS V14.01,2013-06-11 06:27:00,
2013-06-11 02:30:00,63.2,61.8,29.81,NNW,335,2.0,8.0,95,0.00,,---,0.00,VWS V14.01,2013-06-11 06:30:00,
2013-06-11 02:32:00,63.2,61.8,29.81,NNW,343,1.0,2.0,95,0.00,,---,0.00,VWS V14.01,2013-06-11 06:32:00,
2013-06-11 02:38:00,63.3,61.8,29.81,NNW,337,4.0,4.0,95,0.00,,---,0.00,VWS V14.01,2013-06-11 06:38:00,
2013-06-11 02:43:00,63.4,62.0,29.81,NNW,338,1.0,5.0,95,0.00,,---,0.00,VWS V14.01,2013-06-11 06:43:00,
2013-06-11 02:48:00,63.4,62.0,29.81,WNW,287,0.0,5.0,95,0.00,,---,0.00,VWS V14.01,2013-06-11 06:48:00,
2013-06-11 02:53:00,63.5,62.0,29.81,NNW,338,3.0,5.0,95,0.00,,---,0.00,VWS V14.01,2013-06-11 06:53:00,
2013-06-11 02:58:00,63.5,61.8,29.81,NNW,342,0.0,5.0,94,0.00,,---,0.00,VWS V14.01,2013-06-11 06:58:00,
2013-06-11 03:00:00,63.5,62.0,29.81,North,349,2.0,5.0,95,0.00,,---,0.00,VWS V14.01,2013-06-11 07:00:00,
2013-06-11 03:03:00,63.5,62.0,29.81,NNW,340,1.0,3.0,95,0.00,,---,0.00,VWS V14.01,2013-06-11 07:03:00,
2013-06-11 03:08:00,63.5,62.0,29.81,NNW,345,1.0,3.0,95,0.00,,---,0.00,VWS V14.01,2013-06-11 07:08:00,
2013-06-11 03:13:00,63.5,62.0,29.81,NNW,333,2.0,6.0,95,0.00,,---,0.00,VWS V14.01,2013-06-11 07:13:00,
2013-06-11 03:18:00,63.6,62.2,29.82,NNW,347,1.0,6.0,95,0.00,,---,0.00,VWS V14.01,2013-06-11 07:18:00,
2013-06-11 03:23:00,63.6,62.2,29.82,WNW,302,1.0,6.0,95,0.00,,---,0.00,VWS V14.01,2013-06-11 07:23:00,
2013-06-11 03:28:00,63.6,62.2,29.82,NW,324,0.0,6.0,95,0.00,,---,0.00,VWS V14.01,2013-06-11 07:28:00,
2013-06-11 03:30:00,63.6,62.2,29.82,NNW,329,2.0,6.0,95,0.00,,---,0.00,VWS V14.01,2013-06-11 07:30:00,
2013-06-11 03:33:00,63.6,62.2,29.82,NNW,339,1.0,3.0,95,0.00,,---,0.00,VWS V14.01,2013-06-11 07:33:00,
2013-06-11 03:38:00,63.6,62.2,29.82,NNW,340,1.0,3.0,95,0.00,,---,0.00,VWS V14.01,2013-06-11 07:38:00,
2013-06-11 03:43:00,63.7,62.2,29.82,NNW,337,2.0,3.0,95,0.00,,---,0.00,VWS V14.01,2013-06-11 07:43:00,
2013-06-11 03:48:00,63.7,62.2,29.82,NW,324,0.0,3.0,95,0.00,,---,0.00,VWS V14.01,2013-06-11 07:48:00,
2013-06-11 03:53:00,63.7,62.2,29.82,SW,217,1.0,4.0,95,0.00,,---,0.00,VWS V14.01,2013-06-11 07:53:00,
2013-06-11 03:58:00,63.7,62.2,29.82,West,271,1.0,4.0,95,0.00,,---,0.00,VWS V14.01,2013-06-11 07:58:00,
2013-06-11 04:00:00,63.7,62.2,29.82,WNW,300,3.0,4.0,95,0.00,,---,0.00,VWS V14.01,2013-06-11 08:00:00,
2013-06-11 04:03:00,63.7,62.2,29.82,NW,313,1.0,3.0,95,0.00,,---,0.00,VWS V14.01,2013-06-11 08:03:00,
2013-06-11 04:08:00,63.7,62.2,29.83,WSW,249,1.0,3.0,95,0.00,,---,0.00,VWS V14.01,2013-06-11 08:08:00,
2013-06-11 04:13:00,63.7,62.2,29.83,NNW,346,2.0,5.0,95,0.00,,---,0.00,VWS V14.01,2013-06-11 08:13:00,
2013-06-11 04:18:00,63.7,62.2,29.83,WSW,255,1.0,5.0,95,0.00,,---,0.00,VWS V14.01,2013-06-11 08:18:00,
2013-06-11 04:23:00,63.7,62.2,29.83,NNW,327,3.0,5.0,95,0.00,,---,0.00,VWS V14.01,2013-06-11 08:23:00,
2013-06-11 04:28:00,63.7,62.2,29.83,NW,316,1.0,5.0,95,0.00,,---,0.00,VWS V14.01,2013-06-11 08:28:00,
2013-06-11 04:30:00,63.7,62.2,29.83,NNW,347,0.0,5.0,95,0.00,,---,0.00,VWS V14.01,2013-06-11 08:30:00,
2013-06-11 04:33:00,63.7,62.2,29.83,WNW,283,1.0,5.0,95,0.00,,---,0.00,VWS V14.01,2013-06-11 08:33:00,
2013-06-11 04:38:00,63.7,62.2,29.83,North,354,2.0,5.0,95,0.00,,---,0.00,VWS V14.01,2013-06-11 08:38:00,
2013-06-11 04:43:00,63.6,62.2,29.83,NNE,18,1.0,5.0,95,0.00,,---,0.00,VWS V14.01,2013-06-11 08:43:00,
2013-06-11 04:48:00,63.6,62.2,29.83,North,354,2.0,6.0,95,0.00,,---,0.00,VWS V14.01,2013-06-11 08:48:00,
2013-06-11 04:53:00,63.7,62.2,29.84,NNW,331,0.0,6.0,95,0.00,,---,0.00,VWS V14.01,2013-06-11 08:53:00,
2013-06-11 04:58:00,63.7,62.2,29.84,North,352,0.0,6.0,95,0.00,,---,0.00,VWS V14.01,2013-06-11 08:58:00,
2013-06-11 05:00:00,63.7,62.2,29.84,NNW,340,1.0,6.0,95,0.00,,---,0.00,VWS V14.01,2013-06-11 09:00:00,
2013-06-11 05:03:00,63.6,62.2,29.84,NW,305,0.0,3.0,95,0.00,,---,0.00,VWS V14.01,2013-06-11 09:03:00,
2013-06-11 05:08:00,63.6,61.8,29.84,NW,326,2.0,4.0,94,0.00,,---,0.00,VWS V14.01,2013-06-11 09:08:00,
2013-06-11 05:13:00,63.6,61.8,29.84,ENE,63,1.0,4.0,94,0.00,,---,0.00,VWS V14.01,2013-06-11 09:13:00,
2013-06-11 05:18:00,63.5,61.8,29.84,North,349,2.0,4.0,94,0.00,,---,0.00,VWS V14.01,2013-06-11 09:18:00,
2013-06-11 05:23:00,63.5,61.8,29.84,NW,314,3.0,4.0,94,0.00,,---,0.00,VWS V14.01,2013-06-11 09:23:00,
2013-06-11 05:28:00,63.5,61.8,29.84,NNE,23,2.0,4.0,94,0.00,,---,0.00,VWS V14.01,2013-06-11 09:28:00,
2013-06-11 05:30:00,63.5,61.8,29.84,NW,326,0.0,4.0,94,0.00,,---,0.00,VWS V14.01,2013-06-11 09:30:00,
2013-06-11 05:33:00,63.5,61.8,29.84,NW,304,0.0,2.0,94,0.00,,---,0.00,VWS V14.01,2013-06-11 09:33:00,
2013-06-11 05:38:00,63.4,61.7,29.84,NNE,18,2.0,2.0,94,0.00,,---,0.00,VWS V14.01,2013-06-11 09:38:00,
2013-06-11 05:43:00,63.3,61.5,29.85,NNW,340,0.0,4.0,94,0.00,,---,0.00,VWS V14.01,2013-06-11 09:43:00,
2013-06-11 05:48:00,63.3,61.5,29.85,NW,312,1.0,4.0,94,0.00,,---,0.00,VWS V14.01,2013-06-11 09:48:00,
2013-06-11 05:53:00,63.2,61.5,29.85,NNW,335,2.0,5.0,94,0.00,,---,0.00,VWS V14.01,2013-06-11 09:53:00,
2013-06-11 05:58:00,63.1,61.3,29.85,NW,326,2.0,5.0,94,0.00,,---,0.00,VWS V14.01,2013-06-11 09:58:00,
2013-06-11 06:00:00,63.0,61.2,29.85,North,356,2.0,6.0,94,0.00,,---,0.00,VWS V14.01,2013-06-11 10:00:00,
2013-06-11 06:03:00,63.0,61.2,29.85,NW,326,0.0,4.0,94,0.00,,---,0.00,VWS V14.01,2013-06-11 10:03:00,
2013-06-11 06:08:00,63.0,61.2,29.86,NW,321,2.0,4.0,94,0.00,,---,0.00,VWS V14.01,2013-06-11 10:08:00,
2013-06-11 06:13:00,63.0,61.2,29.86,North,360,2.0,9.0,94,0.00,,---,0.00,VWS V14.01,2013-06-11 10:13:00,
2013-06-11 06:18:00,63.0,61.2,29.86,WSW,240,0.0,9.0,94,0.00,,---,0.00,VWS V14.01,2013-06-11 10:18:00,
2013-06-11 06:23:00,63.0,61.2,29.86,WNW,294,2.0,9.0,94,0.00,,---,0.00,VWS V14.01,2013-06-11 10:23:00,
2013-06-11 06:28:00,63.0,61.2,29.86,NW,308,0.0,9.0,94,0.00,,---,0.00,VWS V14.01,2013-06-11 10:28:00,
2013-06-11 06:30:00,63.0,61.2,29.86,NNW,335,1.0,9.0,94,0.00,,---,0.00,VWS V14.01,2013-06-11 10:30:00,
2013-06-11 06:33:00,63.1,61.3,29.86,West,278,1.0,5.0,94,0.00,,---,0.00,VWS V14.01,2013-06-11 10:33:00,
2013-06-11 06:38:00,63.1,61.3,29.86,SW,217,1.0,5.0,94,0.00,,---,0.00,VWS V14.01,2013-06-11 10:38:00,
2013-06-11 06:44:00,63.2,61.5,29.87,NW,314,0.0,5.0,94,0.00,,---,0.00,VWS V14.01,2013-06-11 10:44:00,
2013-06-11 06:49:00,63.2,61.5,29.87,NW,326,0.0,5.0,94,0.00,,---,0.00,VWS V14.01,2013-06-11 10:49:00,
2013-06-11 06:54:00,63.3,61.5,29.87,NE,36,2.0,5.0,94,0.00,,---,0.00,VWS V14.01,2013-06-11 10:54:00,
2013-06-11 06:59:00,63.3,61.5,29.87,NNW,335,1.0,5.0,94,0.00,,---,0.00,VWS V14.01,2013-06-11 10:59:00,
2013-06-11 07:00:00,63.3,61.5,29.87,NNW,347,2.0,5.0,94,0.00,,---,0.00,VWS V14.01,2013-06-11 11:00:00,
2013-06-11 07:04:00,63.3,61.5,29.87,NW,319,1.0,4.0,94,0.00,,---,0.00,VWS V14.01,2013-06-11 11:04:00,
2013-06-11 07:09:00,63.3,61.5,29.88,SW,226,0.0,4.0,94,0.00,,---,0.00,VWS V14.01,2013-06-11 11:09:00,
2013-06-11 07:14:00,63.3,61.5,29.88,NNE,18,2.0,5.0,94,0.00,,---,0.00,VWS V14.01,2013-06-11 11:14:00,
2013-06-11 07:19:00,63.3,61.5,29.88,North,10,0.0,5.0,94,0.00,,---,0.00,VWS V14.01,2013-06-11 11:19:00,
2013-06-11 07:24:00,63.2,61.2,29.88,NW,313,1.0,5.0,93,0.00,,---,0.00,VWS V14.01,2013-06-11 11:24:00,
2013-06-11 07:29:00,63.3,61.5,29.88,North,352,4.0,5.0,94,0.00,,---,0.00,VWS V14.01,2013-06-11 11:29:00,
2013-06-11 07:30:00,63.3,61.2,29.88,WNW,300,1.0,5.0,93,0.00,,---,0.00,VWS V14.01,2013-06-11 11:30:00,
2013-06-11 07:34:00,63.3,61.5,29.88,NNW,341,1.0,3.0,94,0.00,,---,0.00,VWS V14.01,2013-06-11 11:34:00,
2013-06-11 07:39:00,63.5,61.8,29.88,NNW,340,1.0,5.0,94,0.00,,---,0.00,VWS V14.01,2013-06-11 11:39:00,
2013-06-11 07:44:00,63.7,62.0,29.88,NNW,340,1.0,5.0,94,0.00,,---,0.00,VWS V14.01,2013-06-11 11:44:00,
2013-06-11 07:49:00,63.8,61.7,29.88,NNW,340,0.0,5.0,93,0.00,,---,0.00,VWS V14.01,2013-06-11 11:49:00,
2013-06-11 07:54:00,64.0,62.2,29.88,SW,232,2.0,5.0,94,0.00,,---,0.00,VWS V14.01,2013-06-11 11:54:00,
2013-06-11 07:59:00,64.0,61.9,29.88,WSW,253,1.0,5.0,93,0.00,,---,0.00,VWS V14.01,2013-06-11 11:59:00,
2013-06-11 08:00:00,64.1,62.0,29.88,WSW,253,0.0,5.0,93,0.00,,---,0.00,VWS V14.01,2013-06-11 12:00:00,
2013-06-11 08:04:00,64.2,62.1,29.88,West,273,1.0,3.0,93,0.00,,---,0.00,VWS V14.01,2013-06-11 12:04:00,
2013-06-11 08:09:00,64.3,61.9,29.88,NNW,328,2.0,3.0,92,0.00,,---,0.00,VWS V14.01,2013-06-11 12:09:00,
2013-06-11 08:14:00,64.9,62.5,29.88,North,4,4.0,4.0,92,0.00,,---,0.00,VWS V14.01,2013-06-11 12:14:00,
2013-06-11 08:19:00,65.3,62.3,29.88,NNW,329,3.0,4.0,90,0.00,,---,0.00,VWS V14.01,2013-06-11 12:19:00,
2013-06-11 08:24:00,65.4,62.4,29.88,NW,311,1.0,6.0,90,0.00,,---,0.00,VWS V14.01,2013-06-11 12:24:00,
2013-06-11 08:29:00,65.7,62.7,29.88,North,1,4.0,6.0,90,0.00,,---,0.00,VWS V14.01,2013-06-11 12:29:00,
2013-06-11 08:30:00,65.7,62.4,29.89,North,349,4.0,6.0,89,0.00,,---,0.00,VWS V14.01,2013-06-11 12:30:00,
2013-06-11 08:34:00,65.9,62.9,29.89,North,352,3.0,6.0,90,0.00,,---,0.00,VWS V14.01,2013-06-11 12:34:00,
2013-06-11 08:39:00,66.1,62.8,29.89,NNW,347,4.0,6.0,89,0.00,,---,0.00,VWS V14.01,2013-06-11 12:39:00,
2013-06-11 08:44:00,66.5,63.2,29.89,NW,314,3.0,6.0,89,0.00,,---,0.00,VWS V14.01,2013-06-11 12:44:00,
2013-06-11 08:49:00,66.7,62.7,29.89,SW,232,3.0,6.0,87,0.00,,---,0.00,VWS V14.01,2013-06-11 12:49:00,
2013-06-11 08:54:00,67.1,63.4,29.89,North,1,3.0,6.0,88,0.00,,---,0.00,VWS V14.01,2013-06-11 12:54:00,
2013-06-11 08:59:00,67.3,63.3,29.90,WSW,245,3.0,6.0,87,0.00,,---,0.00,VWS V14.01,2013-06-11 12:59:00,
2013-06-11 09:00:00,67.3,63.3,29.89,West,261,0.0,6.0,87,0.00,,---,0.00,VWS V14.01,2013-06-11 13:00:00,
2013-06-11 09:04:00,67.4,63.4,29.90,SW,235,1.0,4.0,87,0.00,,---,0.00,VWS V14.01,2013-06-11 13:04:00,
2013-06-11 09:09:00,67.7,63.7,29.89,NW,319,3.0,4.0,87,0.00,,---,0.00,VWS V14.01,2013-06-11 13:09:00,
2013-06-11 09:14:00,67.9,63.2,29.89,WNW,298,0.0,5.0,85,0.00,,---,0.00,VWS V14.01,2013-06-11 13:14:00,
2013-06-11 09:19:00,68.0,63.3,29.89,West,278,1.0,5.0,85,0.00,,---,0.00,VWS V14.01,2013-06-11 13:19:00,
2013-06-11 09:24:00,68.2,63.5,29.90,SW,220,0.0,5.0,85,0.00,,---,0.00,VWS V14.01,2013-06-11 13:24:00,
2013-06-11 09:29:00,68.3,63.6,29.90,West,264,1.0,7.0,85,0.00,,---,0.00,VWS V14.01,2013-06-11 13:29:00,
2013-06-11 09:30:00,68.4,63.7,29.90,SW,219,2.0,7.0,85,0.00,,---,0.00,VWS V14.01,2013-06-11 13:30:00,
2013-06-11 09:34:00,68.7,64.0,29.90,West,267,3.0,3.0,85,0.00,,---,0.00,VWS V14.01,2013-06-11 13:34:00,
2013-06-11 09:39:00,68.7,63.7,29.90,ENE,76,1.0,5.0,84,0.00,,---,0.00,VWS V14.01,2013-06-11 13:39:00,
2013-06-11 09:44:00,68.9,63.9,29.90,NW,307,2.0,5.0,84,0.00,,---,0.00,VWS V14.01,2013-06-11 13:44:00,
2013-06-11 09:49:00,69.2,63.8,29.90,North,353,3.0,5.0,83,0.00,,---,0.00,VWS V14.01,2013-06-11 13:49:00,
2013-06-11 09:54:00,69.4,64.0,29.90,NW,316,2.0,5.0,83,0.00,,---,0.00,VWS V14.01,2013-06-11 13:54:00,
2013-06-11 09:59:00,69.4,63.7,29.90,WSW,242,1.0,5.0,82,0.00,,---,0.00,VWS V14.01,2013-06-11 13:59:00,
2013-06-11 10:00:00,69.4,64.0,29.90,East,85,0.0,5.0,83,0.00,,---,0.00,VWS V14.01,2013-06-11 14:00:00,
2013-06-11 10:04:00,70.0,64.3,29.90,NW,304,0.0,4.0,82,0.00,,---,0.00,VWS V14.01,2013-06-11 14:04:00,
2013-06-11 10:09:00,70.8,64.7,29.90,NW,323,3.0,4.0,81,0.00,,---,0.00,VWS V14.01,2013-06-11 14:09:00,
2013-06-11 10:14:00,71.1,64.3,29.90,WSW,242,1.0,6.0,79,0.00,,---,0.00,VWS V14.01,2013-06-11 14:14:00,
2013-06-11 10:19:00,71.6,64.4,29.90,NNE,20,2.0,6.0,78,0.00,,---,0.00,VWS V14.01,2013-06-11 14:19:00,
2013-06-11 10:24:00,71.7,64.8,29.90,West,263,1.0,6.0,79,0.00,,---,0.00,VWS V14.01,2013-06-11 14:24:00,
2013-06-11 10:29:00,71.9,65.0,29.89,North,4,4.0,6.0,79,0.00,,---,0.00,VWS V14.01,2013-06-11 14:29:00,
2013-06-11 10:30:00,71.9,65.0,29.89,WNW,284,3.0,6.0,79,0.00,,---,0.00,VWS V14.01,2013-06-11 14:30:00,
2013-06-11 10:34:00,72.1,64.9,29.89,WNW,290,2.0,6.0,78,0.00,,---,0.00,VWS V14.01,2013-06-11 14:34:00,
2013-06-11 10:39:00,72.2,65.0,29.90,West,260,2.0,6.0,78,0.00,,---,0.00,VWS V14.01,2013-06-11 14:39:00,
2013-06-11 10:44:00,72.5,65.3,29.90,SSW,211,2.0,6.0,78,0.00,,---,0.00,VWS V14.01,2013-06-11 14:44:00,
2013-06-11 10:49:00,72.9,65.7,29.90,SSW,207,4.0,6.0,78,0.00,,---,0.00,VWS V14.01,2013-06-11 14:49:00,
2013-06-11 10:54:00,73.4,66.5,29.90,West,269,1.0,6.0,79,0.00,,---,0.00,VWS V14.01,2013-06-11 14:54:00,
2013-06-11 10:59:00,73.5,66.2,29.90,NW,316,1.0,6.0,78,0.00,,---,0.00,VWS V14.01,2013-06-11 14:59:00,
2013-06-11 11:00:00,73.6,66.3,29.90,NNE,15,4.0,6.0,78,0.00,,---,0.00,VWS V14.01,2013-06-11 15:00:00,
2013-06-11 11:04:00,74.0,67.1,29.90,WSW,249,1.0,8.0,79,0.00,,---,0.00,VWS V14.01,2013-06-11 15:04:00,
2013-06-11 11:09:00,74.4,67.1,29.90,WSW,245,4.0,8.0,78,0.00,,---,0.00,VWS V14.01,2013-06-11 15:09:00,
2013-06-11 11:14:00,74.6,66.5,29.90,SSW,208,1.0,8.0,76,0.00,,---,0.00,VWS V14.01,2013-06-11 15:14:00,
2013-06-11 11:19:00,75.1,67.0,29.91,WNW,291,3.0,8.0,76,0.00,,---,0.00,VWS V14.01,2013-06-11 15:19:00,
2013-06-11 11:25:00,75.1,66.6,29.91,WNW,300,1.0,8.0,75,0.00,,---,0.00,VWS V14.01,2013-06-11 15:25:00,
2013-06-11 11:30:00,75.2,67.1,29.91,WSW,248,4.0,8.0,76,0.00,,---,0.00,VWS V14.01,2013-06-11 15:30:00,
2013-06-11 11:35:00,75.4,66.5,29.91,North,9,4.0,6.0,74,0.00,,---,0.00,VWS V14.01,2013-06-11 15:35:00,
2013-06-11 11:40:00,75.1,66.6,29.91,NNW,336,7.0,7.0,75,0.00,,---,0.00,VWS V14.01,2013-06-11 15:40:00,
2013-06-11 11:45:00,75.2,66.3,29.91,NNW,345,3.0,9.0,74,0.00,,---,0.00,VWS V14.01,2013-06-11 15:45:00,
2013-06-11 11:50:00,75.5,67.4,29.91,South,180,0.0,9.0,76,0.00,,---,0.00,VWS V14.01,2013-06-11 15:50:00,
2013-06-11 11:55:00,75.9,66.6,29.91,NW,311,3.0,9.0,73,0.00,,---,0.00,VWS V14.01,2013-06-11 15:55:00,
2013-06-11 12:00:00,76.2,67.7,29.90,WNW,301,0.0,9.0,75,0.00,,---,0.00,VWS V14.01,2013-06-11 16:00:00,
2013-06-11 12:05:00,76.6,67.7,29.91,SSW,212,2.0,5.0,74,0.00,,---,0.00,VWS V14.01,2013-06-11 16:05:00,
2013-06-11 12:10:00,76.5,67.6,29.91,North,6,4.0,8.0,74,0.00,,---,0.00,VWS V14.01,2013-06-11 16:10:00,
2013-06-11 12:15:00,76.8,67.1,29.90,SE,139,2.0,8.0,72,0.00,,---,0.00,VWS V14.01,2013-06-11 16:15:00,
2013-06-11 12:20:00,77.2,67.5,29.90,North,10,3.0,10.0,72,0.00,,---,0.00,VWS V14.01,2013-06-11 16:20:00,
2013-06-11 12:25:00,77.1,66.2,29.90,NW,321,2.0,10.0,69,0.00,,---,0.00,VWS V14.01,2013-06-11 16:25:00,
2013-06-11 12:30:00,77.4,67.7,29.90,SSW,197,2.0,10.0,72,0.00,,---,0.00,VWS V14.01,2013-06-11 16:30:00,
2013-06-11 12:35:00,77.9,67.8,29.90,WSW,252,1.0,4.0,71,0.00,,---,0.00,VWS V14.01,2013-06-11 16:35:00,
2013-06-11 12:40:00,78.2,67.2,29.89,WSW,250,2.0,4.0,69,0.00,,---,0.00,VWS V14.01,2013-06-11 16:40:00,
2013-06-11 12:45:00,78.5,67.5,29.89,NW,304,0.0,7.0,69,0.00,,---,0.00,VWS V14.01,2013-06-11 16:45:00,
2013-06-11 12:50:00,78.2,66.8,29.89,NNW,330,3.0,7.0,68,0.00,,---,0.00,VWS V14.01,2013-06-11 16:50:00,
2013-06-11 12:55:00,78.3,67.3,29.89,WNW,298,3.0,7.0,69,0.00,,---,0.00,VWS V14.01,2013-06-11 16:55:00,
2013-06-11 13:00:00,78.5,67.1,29.89,NNW,339,4.0,6.0,68,0.00,,---,0.00,VWS V14.01,2013-06-11 17:00:00,
2013-06-11 13:05:00,78.9,69.9,29.89,South,179,1.0,6.0,74,0.00,,---,0.00,VWS V14.01,2013-06-11 17:05:00,
2013-06-11 13:10:00,79.3,67.8,29.89,NNW,332,4.0,7.0,68,0.00,,---,0.00,VWS V14.01,2013-06-11 17:10:00,
2013-06-11 13:15:00,79.0,67.1,29.89,SW,226,5.0,8.0,67,0.00,,---,0.00,VWS V14.01,2013-06-11 17:15:00,
2013-06-11 13:20:00,79.1,68.1,29.89,NNW,348,3.0,8.0,69,0.00,,---,0.00,VWS V14.01,2013-06-11 17:20:00,
2013-06-11 13:25:00,79.1,66.8,29.88,SSW,211,0.0,8.0,66,0.00,,---,0.00,VWS V14.01,2013-06-11 17:25:00,
2013-06-11 13:30:00,79.3,67.0,29.88,West,260,1.0,3.0,66,0.00,,---,0.00,VWS V14.01,2013-06-11 17:30:00,
2013-06-11 13:35:00,79.9,68.0,29.88,WNW,284,3.0,7.0,67,0.00,,---,0.00,VWS V14.01,2013-06-11 17:35:00,
2013-06-11 13:40:00,80.2,67.8,29.88,SSE,157,1.0,7.0,66,0.00,,---,0.00,VWS V14.01,2013-06-11 17:40:00,
2013-06-11 13:45:00,80.5,66.8,29.88,SW,226,1.0,7.0,63,0.00,,---,0.00,VWS V14.01,2013-06-11 17:45:00,
2013-06-11 13:50:00,80.8,68.4,29.88,SW,224,4.0,9.0,66,0.00,,---,0.00,VWS V14.01,2013-06-11 17:50:00,
2013-06-11 13:55:00,80.8,68.4,29.88,WSW,244,1.0,9.0,66,0.00,,---,0.00,VWS V14.01,2013-06-11 17:55:00,
2013-06-11 14:00:00,81.3,68.0,29.87,SW,225,5.0,6.0,64,0.00,,---,0.00,VWS V14.01,2013-06-11 18:00:00,
2013-06-11 14:05:00,81.3,68.4,29.88,SSE,159,3.0,6.0,65,0.00,,---,0.00,VWS V14.01,2013-06-11 18:05:00,
2013-06-11 14:10:00,81.3,67.5,29.87,NW,323,3.0,6.0,63,0.00,,---,0.00,VWS V14.01,2013-06-11 18:10:00,
2013-06-11 14:15:00,80.8,67.5,29.88,WNW,291,1.0,8.0,64,0.00,,---,0.00,VWS V14.01,2013-06-11 18:15:00,
2013-06-11 14:20:00,80.7,69.2,29.88,WNW,291,0.0,8.0,68,0.00,,---,0.00,VWS V14.01,2013-06-11 18:20:00,
2013-06-11 14:25:00,81.1,66.4,29.88,SW,214,3.0,9.0,61,0.00,,---,0.00,VWS V14.01,2013-06-11 18:25:00,
2013-06-11 14:30:00,80.9,67.1,29.88,West,265,1.0,1.0,63,0.00,,---,0.00,VWS V14.01,2013-06-11 18:30:00,
2013-06-11 14:35:00,80.4,67.6,29.87,NE,46,3.0,5.0,65,0.00,,---,0.00,VWS V14.01,2013-06-11 18:35:00,
2013-06-11 14:40:00,80.2,67.8,29.87,North,354,2.0,7.0,66,0.00,,---,0.00,VWS V14.01,2013-06-11 18:40:00,
2013-06-11 14:45:00,80.4,68.0,29.87,North,1,4.0,7.0,66,0.00,,---,0.00,VWS V14.01,2013-06-11 18:45:00,
2013-06-11 14:50:00,80.4,67.1,29.87,WNW,302,1.0,7.0,64,0.00,,---,0.00,VWS V14.01,2013-06-11 18:50:00,
2013-06-11 14:55:00,81.1,67.8,29.87,SW,232,1.0,7.0,64,0.00,,---,0.00,VWS V14.01,2013-06-11 18:55:00,
2013-06-11 15:00:00,81.1,66.9,29.87,WNW,293,1.0,9.0,62,0.00,,---,0.00,VWS V14.01,2013-06-11 19:00:00,
2013-06-11 15:01:00,81.2,67.4,29.87,NW,323,0.0,1.0,63,0.00,,---,0.00,VWS V14.01,2013-06-11 19:01:00,
2013-06-11 15:06:00,81.7,67.9,29.86,WNW,289,1.0,4.0,63,0.00,,---,0.00,VWS V14.01,2013-06-11 19:06:00,
2013-06-11 15:11:00,81.3,67.5,29.86,SW,215,1.0,6.0,63,0.00,,---,0.00,VWS V14.01,2013-06-11 19:11:00,
2013-06-11 15:16:00,81.5,67.7,29.87,SW,232,1.0,6.0,63,0.00,,---,0.00,VWS V14.01,2013-06-11 19:16:00,
2013-06-11 15:21:00,81.1,67.8,29.86,SW,236,1.0,6.0,64,0.00,,---,0.00,VWS V14.01,2013-06-11 19:21:00,
2013-06-11 15:26:00,80.7,66.9,29.87,WNW,294,0.0,6.0,63,0.00,,---,0.00,VWS V14.01,2013-06-11 19:26:00,
2013-06-11 15:30:00,80.4,66.7,29.86,NW,323,4.0,6.0,63,0.00,,---,0.00,VWS V14.01,2013-06-11 19:30:00,
2013-06-11 15:31:00,80.3,66.6,29.86,NNW,342,3.0,4.0,63,0.00,,---,0.00,VWS V14.01,2013-06-11 19:31:00,
2013-06-11 15:36:00,80.5,67.7,29.86,NNW,329,1.0,4.0,65,0.00,,---,0.00,VWS V14.01,2013-06-11 19:36:00,
2013-06-11 15:41:00,81.5,67.2,29.86,NW,323,3.0,5.0,62,0.00,,---,0.00,VWS V14.01,2013-06-11 19:41:00,
2013-06-11 15:46:00,82.1,68.7,29.86,ENE,70,0.0,5.0,64,0.00,,---,0.00,VWS V14.01,2013-06-11 19:46:00,
2013-06-11 15:51:00,82.4,66.7,29.86,WSW,243,1.0,6.0,59,0.00,,---,0.00,VWS V14.01,2013-06-11 19:51:00,
2013-06-11 15:56:00,82.6,66.3,29.86,West,271,3.0,6.0,58,0.00,,---,0.00,VWS V14.01,2013-06-11 19:56:00,
2013-06-11 16:00:00,82.6,66.8,29.85,NE,37,2.0,6.0,59,0.00,,---,0.00,VWS V14.01,2013-06-11 20:00:00,
2013-06-11 16:01:00,82.6,67.8,29.85,NNW,343,2.0,7.0,61,0.00,,---,0.00,VWS V14.01,2013-06-11 20:01:00,
2013-06-11 16:06:00,82.6,66.8,29.85,NNW,339,3.0,7.0,59,0.00,,---,0.00,VWS V14.01,2013-06-11 20:06:00,
2013-06-11 16:11:00,83.1,67.3,29.85,WSW,238,2.0,7.0,59,0.00,,---,0.00,VWS V14.01,2013-06-11 20:11:00,
2013-06-11 16:16:00,83.2,65.4,29.85,SW,229,2.0,8.0,55,0.00,,---,0.00,VWS V14.01,2013-06-11 20:16:00,
2013-06-11 16:21:00,83.5,67.2,29.85,SW,221,4.0,8.0,58,0.00,,---,0.00,VWS V14.01,2013-06-11 20:21:00,
2013-06-11 16:26:00,83.2,66.9,29.84,SW,224,2.0,8.0,58,0.00,,---,0.00,VWS V14.01,2013-06-11 20:26:00,
2013-06-11 16:30:00,83.4,67.1,29.85,WNW,302,3.0,8.0,58,0.00,,---,0.00,VWS V14.01,2013-06-11 20:30:00,
2013-06-11 16:31:00,83.4,66.1,29.85,West,266,1.0,4.0,56,0.00,,---,0.00,VWS V14.01,2013-06-11 20:31:00,
2013-06-11 16:36:00,83.5,68.2,29.85,South,176,4.0,6.0,60,0.00,,---,0.00,VWS V14.01,2013-06-11 20:36:00,
2013-06-11 16:41:00,83.3,64.9,29.85,WSW,250,1.0,9.0,54,0.00,,---,0.00,VWS V14.01,2013-06-11 20:41:00,
2013-06-11 16:46:00,82.6,66.3,29.84,SSW,195,1.0,9.0,58,0.00,,---,0.00,VWS V14.01,2013-06-11 20:46:00,
2013-06-11 16:51:00,82.4,65.7,29.84,SSE,153,2.0,9.0,57,0.00,,---,0.00,VWS V14.01,2013-06-11 20:51:00,
2013-06-11 16:56:00,82.7,65.4,29.84,West,270,6.0,10.0,56,0.00,,---,0.00,VWS V14.01,2013-06-11 20:56:00,
2013-06-11 17:00:00,82.6,66.8,29.83,WSW,248,5.0,10.0,59,0.00,,---,0.00,VWS V14.01,2013-06-11 21:00:00,
2013-06-11 17:01:00,82.6,65.3,29.83,WNW,300,1.0,5.0,56,0.00,,---,0.00,VWS V14.01,2013-06-11 21:01:00,
2013-06-11 17:06:00,83.0,65.7,29.83,SE,141,2.0,7.0,56,0.00,,---,0.00,VWS V14.01,2013-06-11 21:06:00,
2013-06-11 17:11:00,83.2,65.4,29.83,WSW,238,3.0,10.0,55,0.00,,---,0.00,VWS V14.01,2013-06-11 21:11:00,
2013-06-11 17:16:00,83.2,66.9,29.83,SE,129,2.0,10.0,58,0.00,,---,0.00,VWS V14.01,2013-06-11 21:16:00,
2013-06-11 17:21:00,83.5,65.7,29.82,WNW,289,0.0,10.0,55,0.00,,---,0.00,VWS V14.01,2013-06-11 21:21:00,
2013-06-11 17:26:00,83.7,67.4,29.82,SSW,200,1.0,10.0,58,0.00,,---,0.00,VWS V14.01,2013-06-11 21:26:00,
2013-06-11 17:30:00,84.0,66.6,29.83,SW,221,0.0,10.0,56,0.00,,---,0.00,VWS V14.01,2013-06-11 21:30:00,
2013-06-11 17:31:00,84.0,66.6,29.83,SE,131,2.0,2.0,56,0.00,,---,0.00,VWS V14.01,2013-06-11 21:31:00,
2013-06-11 17:36:00,83.9,65.5,29.84,SSW,195,3.0,5.0,54,0.00,,---,0.00,VWS V14.01,2013-06-11 21:36:00,
2013-06-11 17:41:00,83.8,65.9,29.84,SW,225,5.0,6.0,55,0.00,,---,0.00,VWS V14.01,2013-06-11 21:41:00,
2013-06-11 17:46:00,83.9,66.0,29.83,SW,236,4.0,7.0,55,0.00,,---,0.00,VWS V14.01,2013-06-11 21:46:00,
2013-06-11 17:51:00,83.2,65.9,29.83,WSW,250,2.0,7.0,56,0.00,,---,0.00,VWS V14.01,2013-06-11 21:51:00,
2013-06-11 17:56:00,83.2,65.9,29.84,SW,233,2.0,9.0,56,0.00,,---,0.00,VWS V14.01,2013-06-11 21:56:00,
2013-06-11 18:00:00,83.2,65.9,29.84,SW,235,2.0,9.0,56,0.00,,---,0.00,VWS V14.01,2013-06-11 22:00:00,
2013-06-11 18:01:00,83.3,66.5,29.84,WSW,253,5.0,10.0,57,0.00,,---,0.00,VWS V14.01,2013-06-11 22:01:00,
2013-06-11 18:06:00,83.2,65.4,29.84,SW,217,3.0,10.0,55,0.00,,---,0.00,VWS V14.01,2013-06-11 22:06:00,
2013-06-11 18:11:00,83.1,65.8,29.84,ENE,61,1.0,10.0,56,0.00,,---,0.00,VWS V14.01,2013-06-11 22:11:00,
2013-06-11 18:16:00,83.3,66.0,29.83,SSW,203,6.0,13.0,56,0.00,,---,0.00,VWS V14.01,2013-06-11 22:16:00,
2013-06-11 18:22:00,83.3,66.5,29.82,SW,232,8.0,13.0,57,0.00,,---,0.00,VWS V14.01,2013-06-11 22:22:00,
2013-06-11 18:27:00,82.9,65.6,29.81,ESE,114,3.0,13.0,56,0.00,,---,0.00,VWS V14.01,2013-06-11 22:27:00,
2013-06-11 18:30:00,82.7,66.4,29.81,SSE,157,0.0,13.0,58,0.00,,---,0.00,VWS V14.01,2013-06-11 22:30:00,
2013-06-11 18:32:00,82.7,66.4,29.81,SSE,148,0.0,2.0,58,0.00,,---,0.00,VWS V14.01,2013-06-11 22:32:00,
2013-06-11 18:37:00,82.5,65.8,29.81,South,184,3.0,5.0,57,0.00,,---,0.00,VWS V14.01,2013-06-11 22:37:00,
2013-06-11 18:42:00,81.7,65.0,29.81,SSW,211,2.0,5.0,57,0.00,,---,0.00,VWS V14.01,2013-06-11 22:42:00,
2013-06-11 18:47:00,81.0,64.8,29.81,SW,236,4.0,7.0,58,0.00,,---,0.00,VWS V14.01,2013-06-11 22:47:00,
2013-06-11 18:52:00,80.6,65.0,29.81,WSW,256,3.0,7.0,59,0.00,,---,0.00,VWS V14.01,2013-06-11 22:52:00,
2013-06-11 18:57:00,80.3,65.2,29.82,WSW,243,2.0,7.0,60,0.00,,---,0.00,VWS V14.01,2013-06-11 22:57:00,
2013-06-11 19:00:00,80.0,65.4,29.83,West,280,4.0,7.0,61,0.00,,---,0.00,VWS V14.01,2013-06-11 23:00:00,
2013-06-11 19:02:00,79.9,65.3,29.84,WNW,288,1.0,5.0,61,0.00,,---,0.00,VWS V14.01,2013-06-11 23:02:00,
2013-06-11 19:07:00,79.6,65.4,29.85,West,280,2.0,9.0,62,0.00,,---,0.00,VWS V14.01,2013-06-11 23:07:00,
2013-06-11 19:12:00,79.4,65.3,29.84,West,266,1.0,9.0,62,0.00,,---,0.00,VWS V14.01,2013-06-11 23:12:00,
2013-06-11 19:17:00,79.2,65.5,29.84,SSW,197,8.0,9.0,63,0.00,,---,0.00,VWS V14.01,2013-06-11 23:17:00,
2013-06-11 19:22:00,79.0,65.3,29.84,WNW,287,0.0,9.0,63,0.00,,---,0.00,VWS V14.01,2013-06-11 23:22:00,
2013-06-11 19:27:00,78.8,65.2,29.83,ESE,110,1.0,9.0,63,0.00,,---,0.00,VWS V14.01,2013-06-11 23:27:00,
2013-06-11 19:30:00,78.7,65.5,29.83,South,188,0.0,9.0,64,0.00,,---,0.00,VWS V14.01,2013-06-11 23:30:00,
2013-06-11 19:32:00,78.6,65.4,29.83,SW,218,1.0,3.0,64,0.00,,---,0.00,VWS V14.01,2013-06-11 23:32:00,
2013-06-11 19:37:00,78.5,65.8,29.82,SSE,156,0.0,3.0,65,0.00,,---,0.00,VWS V14.01,2013-06-11 23:37:00,
2013-06-11 19:42:00,78.3,65.1,29.82,West,267,1.0,3.0,64,0.00,,---,0.00,VWS V14.01,2013-06-11 23:42:00,
2013-06-11 19:47:00,78.1,65.4,29.82,SSW,203,0.0,3.0,65,0.00,,---,0.00,VWS V14.01,2013-06-11 23:47:00,
2013-06-11 19:52:00,78.0,65.3,29.81,SE,143,2.0,4.0,65,0.00,,---,0.00,VWS V14.01,2013-06-11 23:52:00,
2013-06-11 19:57:00,77.8,64.2,29.81,SW,228,6.0,12.0,63,0.00,,---,0.00,VWS V14.01,2013-06-11 23:57:00,
2013-06-11 20:00:00,77.5,63.5,29.80,ESE,117,5.0,12.0,62,0.00,,---,0.00,VWS V14.01,2013-06-12 00:00:00,
2013-06-11 20:02:00,77.3,63.3,29.81,SSE,155,2.0,8.0,62,0.00,,---,0.00,VWS V14.01,2013-06-12 00:02:00,
2013-06-11 20:07:00,76.8,63.7,29.81,SW,221,5.0,8.0,64,0.00,,---,0.00,VWS V14.01,2013-06-12 00:07:00,
2013-06-11 20:12:00,76.4,63.8,29.80,SE,136,2.0,8.0,65,0.00,,---,0.00,VWS V14.01,2013-06-12 00:12:00,
2013-06-11 20:17:00,76.3,64.1,29.80,SW,236,1.0,8.0,66,0.00,,---,0.00,VWS V14.01,2013-06-12 00:17:00,
2013-06-11 20:22:00,76.4,64.2,29.80,WSW,242,1.0,8.0,66,0.00,,---,0.00,VWS V14.01,2013-06-12 00:22:00,
2013-06-11 20:27:00,76.2,64.0,29.81,SSW,212,3.0,8.0,66,0.00,,---,0.00,VWS V14.01,2013-06-12 00:27:00,
2013-06-11 20:30:00,76.0,64.3,29.81,WSW,243,0.0,8.0,67,0.00,,---,0.00,VWS V14.01,2013-06-12 00:30:00,
2013-06-11 20:32:00,75.8,64.1,29.82,WSW,241,1.0,3.0,67,0.00,,---,0.00,VWS V14.01,2013-06-12 00:32:00,
2013-06-11 20:37:00,75.5,64.6,29.82,West,263,2.0,4.0,69,0.00,,---,0.00,VWS V14.01,2013-06-12 00:37:00,
2013-06-11 20:42:00,75.2,64.3,29.82,NW,304,1.0,4.0,69,0.00,,---,0.00,VWS V14.01,2013-06-12 00:42:00,
2013-06-11 20:47:00,75.0,64.2,29.82,West,263,1.0,4.0,69,0.00,,---,0.00,VWS V14.01,2013-06-12 00:47:00,
2013-06-11 20:52:00,74.8,64.0,29.83,WSW,248,1.0,4.0,69,0.00,,---,0.00,VWS V14.01,2013-06-12 00:52:00,
2013-06-11 20:57:00,74.6,64.2,29.83,West,259,0.0,4.0,70,0.00,,---,0.00,VWS V14.01,2013-06-12 00:57:00,
2013-06-11 21:00:00,74.4,64.4,29.83,SSW,196,2.0,4.0,71,0.00,,---,0.00,VWS V14.01,2013-06-12 01:00:00,
2013-06-11 21:02:00,74.3,63.9,29.83,SW,236,0.0,2.0,70,0.00,,---,0.00,VWS V14.01,2013-06-12 01:02:00,
2013-06-11 21:07:00,74.2,63.8,29.83,SW,226,0.0,5.0,70,0.00,,---,0.00,VWS V14.01,2013-06-12 01:07:00,
2013-06-11 21:12:00,74.0,63.6,29.83,WSW,242,1.0,5.0,70,0.00,,---,0.00,VWS V14.01,2013-06-12 01:12:00,
2013-06-11 21:17:00,73.8,63.4,29.83,SW,228,1.0,5.0,70,0.00,,---,0.00,VWS V14.01,2013-06-12 01:17:00,
2013-06-11 21:23:00,73.6,63.2,29.83,SE,144,1.0,5.0,70,0.00,,---,0.00,VWS V14.01,2013-06-12 01:23:00,
2013-06-11 21:28:00,73.3,63.3,29.83,SSE,153,1.0,5.0,71,0.00,,---,0.00,VWS V14.01,2013-06-12 01:28:00,
2013-06-11 21:30:00,73.2,63.2,29.83,SE,144,0.0,5.0,71,0.00,,---,0.00,VWS V14.01,2013-06-12 01:30:00,
2013-06-11 21:33:00,73.1,63.2,29.83,WSW,252,0.0,3.0,71,0.00,,---,0.00,VWS V14.01,2013-06-12 01:33:00,
2013-06-11 21:38:00,72.7,63.2,29.83,SW,218,1.0,3.0,72,0.00,,---,0.00,VWS V14.01,2013-06-12 01:38:00,
2013-06-11 21:43:00,72.4,63.3,29.82,SSW,196,1.0,4.0,73,0.00,,---,0.00,VWS V14.01,2013-06-12 01:43:00,
2013-06-11 21:48:00,72.2,63.1,29.83,SSW,205,1.0,4.0,73,0.00,,---,0.00,VWS V14.01,2013-06-12 01:48:00,
2013-06-11 21:53:00,71.8,63.1,29.83,SSW,210,0.0,4.0,74,0.00,,---,0.00,VWS V14.01,2013-06-12 01:53:00,
2013-06-11 21:58:00,71.5,63.2,29.84,SW,229,0.0,4.0,75,0.00,,---,0.00,VWS V14.01,2013-06-12 01:58:00,
2013-06-11 22:00:00,71.3,63.0,29.84,SW,231,0.0,4.0,75,0.00,,---,0.00,VWS V14.01,2013-06-12 02:00:00,
2013-06-11 22:03:00,71.2,62.9,29.84,SW,229,0.0,1.0,75,0.00,,---,0.00,VWS V14.01,2013-06-12 02:03:00,
2013-06-11 22:08:00,70.9,63.0,29.84,SSW,211,0.0,1.0,76,0.00,,---,0.00,VWS V14.01,2013-06-12 02:08:00,
2013-06-11 22:13:00,70.4,62.8,29.84,SSW,211,0.0,1.0,77,0.00,,---,0.00,VWS V14.01,2013-06-12 02:13:00,
2013-06-11 22:18:00,69.9,63.1,29.84,SSW,211,0.0,1.0,79,0.00,,---,0.00,VWS V14.01,2013-06-12 02:18:00,
2013-06-11 22:23:00,69.4,63.0,29.85,SSW,211,0.0,1.0,80,0.00,,---,0.00,VWS V14.01,2013-06-12 02:23:00,
2013-06-11 22:28:00,69.1,63.0,29.85,SSW,211,0.0,1.0,81,0.00,,---,0.00,VWS V14.01,2013-06-12 02:28:00,
2013-06-11 22:30:00,68.9,62.5,29.85,SSW,211,0.0,1.0,80,0.00,,---,0.00,VWS V14.01,2013-06-12 02:30:00,
2013-06-11 22:33:00,68.7,62.6,29.85,SSW,211,0.0,0.0,81,0.00,,---,0.00,VWS V14.01,2013-06-12 02:33:00,
2013-06-11 22:38:00,68.5,62.8,29.85,SSW,211,0.0,0.0,82,0.00,,---,0.00,VWS V14.01,2013-06-12 02:38:00,
2013-06-11 22:43:00,68.1,62.8,29.85,SSW,212,0.0,0.0,83,0.00,,---,0.00,VWS V14.01,2013-06-12 02:43:00,
2013-06-11 22:48:00,67.7,62.7,29.85,SSW,211,0.0,0.0,84,0.00,,---,0.00,VWS V14.01,2013-06-12 02:48:00,
2013-06-11 22:53:00,67.3,62.3,29.85,SSW,212,0.0,0.0,84,0.00,,---,0.00,VWS V14.01,2013-06-12 02:53:00,
2013-06-11 22:58:00,66.9,62.2,29.85,SSW,211,0.0,0.0,85,0.00,,---,0.00,VWS V14.01,2013-06-12 02:58:00,
2013-06-11 23:00:00,66.7,62.4,29.85,SSW,211,0.0,0.0,86,0.00,,---,0.00,VWS V14.01,2013-06-12 03:00:00,
2013-06-11 23:03:00,66.5,62.2,29.85,SSW,211,0.0,0.0,86,0.00,,---,0.00,VWS V14.01,2013-06-12 03:03:00,
2013-06-11 23:08:00,66.2,62.2,29.85,SSW,211,0.0,0.0,87,0.00,,---,0.00,VWS V14.01,2013-06-12 03:08:00,
2013-06-11 23:13:00,65.8,62.2,29.85,SSW,211,0.0,0.0,88,0.00,,---,0.00,VWS V14.01,2013-06-12 03:13:00,
2013-06-11 23:18:00,65.7,62.4,29.85,SSW,211,0.0,0.0,89,0.00,,---,0.00,VWS V14.01,2013-06-12 03:18:00,
2013-06-11 23:23:00,65.5,62.5,29.85,SSW,211,0.0,0.0,90,0.00,,---,0.00,VWS V14.01,2013-06-12 03:23:00,
2013-06-11 23:28:00,65.4,62.4,29.84,SSW,211,0.0,0.0,90,0.00,,---,0.00,VWS V14.01,2013-06-12 03:28:00,
2013-06-11 23:30:00,65.5,62.8,29.84,SSW,211,0.0,0.0,91,0.00,,---,0.00,VWS V14.01,2013-06-12 03:30:00,
2013-06-11 23:33:00,65.6,62.9,29.84,SSW,211,0.0,0.0,91,0.00,,---,0.00,VWS V14.01,2013-06-12 03:33:00,
2013-06-11 23:38:00,65.6,62.9,29.84,SSW,211,0.0,0.0,91,0.00,,---,0.00,VWS V14.01,2013-06-12 03:38:00,
2013-06-11 23:43:00,65.6,62.9,29.83,SSW,211,0.0,1.0,91,0.00,,---,0.00,VWS V14.01,2013-06-12 03:43:00,
2013-06-11 23:48:00,65.6,62.9,29.83,SSW,211,0.0,1.0,91,0.00,,---,0.00,VWS V14.01,2013-06-12 03:48:00,
2013-06-11 23:53:00,65.6,62.9,29.84,SSW,211,0.0,1.0,91,0.00,,---,0.00,VWS V14.01,2013-06-12 03:53:00,
2013-06-11 23:58:00,65.3,62.6,29.85,SSW,211,0.0,1.0,91,0.00,,---,0.00,VWS V14.01,2013-06-12 03:58:00,